EUTELSAT 115 WEST B

Last updated on Sun Jun 21 2026 00:03:06 GMT+0000 (Coordinated Universal Time)

1 40425U 15010B 26170.94145181 -.00000031 00000+0 00000+0 0 9994 2 40425 0.0097 152.8810 0000460 27.2731 312.0421 1.00276894 41421
UTC large
Height (km)
Speed (km/s)
/
Latitude / Longitude
Inclination (degrees)
Orbital Period (minutes)
Azimuth
Elevation
Range (km)
Doppler Factor

Next 0 passes for location: London (51.5072 / 0.1276)

No passes found over London.
EUTELSAT 115 WEST B